{"data":{"norad_id":61568,"epoch":"2026-09-22T20:58:37.787808Z","epoch_age_seconds":92285,"freshness":"FRESH","line1":"1 61568U 24185S   26265.87404847  .00000451  00000+0  17477-3 0  9997","line2":"2 61568  88.9849  43.5380 0008417  77.9987 282.2150 14.28361157110734","mean_motion":14.28361157,"eccentricity":0.0008417,"inclination_deg":88.9849,"raan_deg":43.538,"arg_perigee_deg":77.9987,"mean_anomaly_deg":282.215,"bstar":0.00017477,"rev_number":11073,"period_min":100.81483894623,"perigee_km":791.17455971211,"apogee_km":803.25354567422,"semimajor_km":7175.3510526932,"source":"CELESTRAK","updated_at":"2026-09-23T09:00:20.908437Z"}}